{"data":{"norad_id":61760,"epoch":"2026-05-25T04:38:50.318016Z","epoch_age_seconds":55637,"freshness":"FRESH","line1":"1 61760U 24199AB  26145.19363794  .00074274  00000+0  78522-3 0  9995","line2":"2 61760  97.2969  23.3891 0003799  29.0193 331.1276 15.63937197134172","mean_motion":15.63937197,"eccentricity":0.0003799,"inclination_deg":97.2969,"raan_deg":23.3891,"arg_perigee_deg":29.0193,"mean_anomaly_deg":331.1276,"bstar":0.00078522,"rev_number":13417,"period_min":92.075308571358,"perigee_km":373.7310866921,"apogee_km":378.86310571839,"semimajor_km":6754.4340962052,"source":"CELESTRAK","updated_at":"2026-05-25T13:38:02.556607Z"}}